STARLINK-11557, 62837

Orbit data source: Space-Track

STARLINK-11557, 62837 is a payload satellite owned by SpaceX/Seattle (US) in LEO that was launched on Mon, 27 Jan 2025 UTC via an FALCON 9 launch vehicle from the Air Force Eastern Test Range (AFETR). Payload-class satellites include a variety of spacecraft equipped with specific instruments for various scientific and technological missions. These include communications satellites like Starlink; space stations such as the ISS; scientific satellites like the Hubble; Earth observation satellites from companies like Planet Labs, Umbra, and HawkEye 360; GPS; miniature CubeSats for education and research; and military/defense satellites.

Loading next visibility...
Identifier
62837, 2025-019J
Orbit
LEO
Country
Flag of USUS
Related business
Manufacturer
SpaceX/Seattle
Mission
Operational Commercial Communications
Bus & Motor
STARLINK V2MD, Unknown motor
Mass
960 kg wet, ~910 kg dry
Launch date (UTC)
2025-01-27 (1 year ago)
Launch vehicle
FALCON 9
Launch site
Air Force Eastern Test Range (AFETR)
Object type
Payload
Rocket body
Debris
Shape & HBR
Box + 2 Pan, 18.1 m
Radar Cross Section
36.964 m², Large (>1 m²)

Expand to show TLE details & history
Last TLE update: 20 hours ago

TLE from 20 hours ago
0 STARLINK-11557
1 62837U 25019J   26034.68104522  .00242335  00000-0  18221-2 0  9991
2 62837  43.0011 150.8348 0004938 271.7573  88.2729 15.71031690 58532
Epoch: 2026-02-03T16:20Z
TLE epoch observation values (Epoch: 2026-02-03T16:20:42.307Z)
Latitude
-0.00005°
Longitude
131.79998°
Altitude
355.62 km
Speed
7.698 km/s
True Right ascension
10h 03m 20s
True Declination
0° 00' 00"
Sunlit
Object was in full shadow at epoch
Visualization orbit readout
Latitude
Unknown
Longitude
Unknown
Altitude
Unknown
Speed
Unknown
Apparent Right ascension
Unknown
Apparent Declination
Unknown
Sunlit
N/A
Visualization observer readout
Local Sidereal Time
14:00:20
Azimuth
Unknown
Elevation
Unknown
Doppler factor
Unknown
Orbital elements
Apogee altitude
361.255 km
Perigee altitude
354.603 km
Semi-major axis
6,736.066 km
Eccentricity
0.00049
Inclination
43.0011°
RAAN
150.8348°
Arg. of periapsis
271.7573°
True anomaly
88.32946°
Mean anomaly
88.2729°
Eccentric anomaly
88.30118°
Mean motion
3.92585 °/min
Orbital period
91.7 mins
BSTAR
0.0018221
Loading maneuver chart data...
Computing Atmospheric mass density...
Loading historical data...
Loading historical data...
Loading historical data...
Loading historical data...
Loading historical data...
Loading historical data...
Loading historical data...

Documentation

Showing up to 5 results
|